TimeCET,TemperatureF,Dew PointF,Humidity,Sea Level PressureIn,VisibilityMPH,Wind Direction,Wind SpeedMPH,Gust SpeedMPH,PrecipitationIn,Events,Conditions,WindDirDegrees,DateUTC
12:00 AM,33.8,33.8,100,29.71,3.1,NW,16.1,-,N/A,Rain,Light Rain,310,2012-12-02 23:00:00
12:30 AM,33.8,33.8,100,29.68,3.7,WNW,16.1,-,N/A,Rain,Light Rain,300,2012-12-02 23:30:00
1:00 AM,33.8,33.8,100,29.68,3.7,WNW,17.3,-,N/A,Snow,Light Snow,300,2012-12-03 00:00:00
1:30 AM,33.8,33.8,100,29.68,2.5,WNW,13.8,-,N/A,Snow,Light Snow,290,2012-12-03 00:30:00
2:00 AM,32.0,32.0,100,29.68,-9999.0,WNW,10.4,-,N/A,Snow,Snow,290,2012-12-03 01:00:00
2:30 AM,32.0,32.0,100,29.68,-9999.0,WNW,11.5,-,N/A,Snow,Light Snow,290,2012-12-03 01:30:00
3:00 AM,32.0,32.0,100,29.68,3.1,WNW,13.8,-,N/A,Snow,Light Snow,290,2012-12-03 02:00:00
3:30 AM,33.8,33.8,100,29.68,5.0,WNW,15.0,-,N/A,Snow,Light Snow,290,2012-12-03 02:30:00
4:00 AM,33.8,33.8,100,29.68,5.0,WNW,13.8,-,N/A,Snow,Light Snow,290,2012-12-03 03:00:00
4:30 AM,32.0,32.0,100,29.68,3.7,WNW,17.3,-,N/A,Snow,Light Snow,290,2012-12-03 03:30:00
5:00 AM,32.0,32.0,100,29.68,5.0,WNW,17.3,-,N/A,Snow,Light Snow,290,2012-12-03 04:00:00
5:30 AM,33.8,32.0,93,29.68,6.2,WNW,15.0,-,N/A,,Mostly Cloudy,290,2012-12-03 04:30:00
6:00 AM,33.8,32.0,93,29.68,6.2,West,13.8,-,N/A,,Mostly Cloudy,280,2012-12-03 05:00:00
6:30 AM,33.8,30.2,87,29.68,6.2,WNW,19.6,-,N/A,,Mostly Cloudy,290,2012-12-03 05:30:00
7:00 AM,33.8,30.2,87,29.68,6.2,WNW,17.3,-,N/A,,Mostly Cloudy,300,2012-12-03 06:00:00
7:30 AM,33.8,30.2,87,29.71,6.2,WNW,18.4,-,N/A,,Mostly Cloudy,300,2012-12-03 06:30:00
8:00 AM,33.8,28.4,81,29.71,6.2,NW,15.0,-,N/A,,Mostly Cloudy,310,2012-12-03 07:00:00
8:30 AM,33.8,28.4,81,29.71,6.2,WNW,12.7,-,N/A,,Mostly Cloudy,300,2012-12-03 07:30:00
9:00 AM,35.6,26.6,70,29.71,6.2,NW,17.3,-,N/A,,Overcast,310,2012-12-03 08:00:00
9:30 AM,33.8,26.6,75,29.74,6.2,NW,18.4,-,N/A,,Mostly Cloudy,310,2012-12-03 08:30:00
10:00 AM,35.6,26.6,70,29.74,6.2,NW,18.4,-,N/A,,Mostly Cloudy,310,2012-12-03 09:00:00
10:30 AM,35.6,26.6,70,29.74,6.2,NW,21.9,-,N/A,,Mostly Cloudy,320,2012-12-03 09:30:00
11:00 AM,37.4,24.8,60,29.74,6.2,NNW,19.6,-,N/A,,Mostly Cloudy,330,2012-12-03 10:00:00
11:30 AM,35.6,28.4,75,29.74,6.2,NW,20.7,-,N/A,,Mostly Cloudy,310,2012-12-03 10:30:00
12:00 PM,35.6,28.4,75,29.74,6.2,NW,18.4,-,N/A,,Mostly Cloudy,310,2012-12-03 11:00:00
12:30 PM,37.4,28.4,70,29.74,-9999.0,NW,24.2,-,N/A,,Clear,310,2012-12-03 11:30:00
1:00 PM,37.4,26.6,65,29.74,6.2,WNW,26.5,-,N/A,,Mostly Cloudy,300,2012-12-03 12:00:00
1:30 PM,37.4,26.6,65,29.74,6.2,NW,24.2,35.7,N/A,,Mostly Cloudy,310,2012-12-03 12:30:00
2:00 PM,37.4,26.6,65,29.74,6.2,NW,24.2,-,N/A,,Mostly Cloudy,310,2012-12-03 13:00:00
2:30 PM,37.4,24.8,60,29.77,6.2,NW,27.6,-,N/A,,Mostly Cloudy,310,2012-12-03 13:30:00
3:00 PM,37.4,24.8,60,29.77,-9999.0,NW,25.3,-,N/A,,Clear,310,2012-12-03 14:00:00
3:30 PM,35.6,24.8,65,29.77,-9999.0,WNW,23.0,-,N/A,,Clear,300,2012-12-03 14:30:00
4:00 PM,35.6,24.8,65,29.77,-9999.0,WNW,23.0,-,N/A,,Clear,300,2012-12-03 15:00:00
4:30 PM,33.8,24.8,70,29.80,-9999.0,WNW,18.4,-,N/A,,Clear,300,2012-12-03 15:30:00
5:00 PM,33.8,24.8,70,29.80,-9999.0,NW,18.4,-,N/A,,Clear,310,2012-12-03 16:00:00
5:30 PM,33.8,24.8,70,29.80,-9999.0,NW,15.0,-,N/A,,Clear,310,2012-12-03 16:30:00
6:00 PM,33.8,24.8,70,29.80,-9999.0,WNW,16.1,-,N/A,,Clear,300,2012-12-03 17:00:00
6:30 PM,33.8,24.8,70,29.83,-9999.0,NW,15.0,-,N/A,,Clear,310,2012-12-03 17:30:00
7:00 PM,33.8,23.0,65,29.83,-9999.0,NW,18.4,-,N/A,,Clear,310,2012-12-03 18:00:00
7:30 PM,32.0,23.0,69,29.83,-9999.0,NW,13.8,-,N/A,,Clear,310,2012-12-03 18:30:00
8:00 PM,33.8,23.0,65,29.83,-9999.0,NW,17.3,-,N/A,,Clear,310,2012-12-03 19:00:00
8:30 PM,32.0,23.0,69,29.86,-9999.0,WNW,15.0,-,N/A,,Clear,300,2012-12-03 19:30:00
9:00 PM,32.0,23.0,69,29.83,-9999.0,WNW,16.1,-,N/A,,Clear,300,2012-12-03 20:00:00
9:30 PM,32.0,23.0,69,29.86,-9999.0,NW,13.8,-,N/A,,Clear,310,2012-12-03 20:30:00
10:00 PM,30.2,23.0,75,29.86,-9999.0,WNW,10.4,-,N/A,,Clear,290,2012-12-03 21:00:00
10:30 PM,28.4,23.0,80,29.86,-9999.0,WNW,8.1,-,N/A,,Clear,290,2012-12-03 21:30:00
11:00 PM,28.4,23.0,80,29.86,-9999.0,Variable,2.3,-,N/A,,Clear,0,2012-12-03 22:00:00
11:30 PM,28.4,23.0,80,29.86,-9999.0,WSW,5.8,-,N/A,,Clear,250,2012-12-03 22:30:00